Preview of NWS' New Version of Forecast
This preview is not operational and should not be used for support decisions.

Regional Weather Roundup (RWR)

Issued by National Weather Service (NWS)

                            
000
ASUS43 KDMX 181106
RWRIA 

WEATHER ROUNDUP FOR IOWA
NATIONAL WEATHER SERVICE DES MOINES IA
600 AM CDT THU APR 18 2019

NOTE: "FAIR" INDICATES FEW OR NO CLOUDS BELOW 12,000 FEET WITH NO
SIGNIFICANT WEATHER AND/OR OBSTRUCTIONS TO VISIBILITY.

* - THESE STATIONS ARE NOT NWS STATIONS...THUS NOT UNDER NWS
QUALITY CONTROL.  THEY ALSO DO NOT REPORT WEATHER SUCH 
AS PRECIPITATION OR FOG.  

IAZ001>003-012>014-020>022-031>034-043>046-181200-
   NORTHWEST IOWA
  
CITY           SKY/WX    TMP DP  RH WIND       PRES   REMARKS
CARROLL *      CLOUDY    43  41  93 NW15      29.79R                  
CHEROKEE *     CLOUDY    38  38  99 N5        29.84R WCI  35          
DENISON *      CLOUDY    39  39 100 NW6       29.83S WCI  35          
LE MARS *      CLOUDY    43  43 100 NW9       29.84R                  
SHELDON *      CLOUDY    39  39 100 NW7       29.81R WCI  34          
SIOUX CITY     CLOUDY    44  41  89 NW9       29.84R                  
SPENCER        CLOUDY    40  37  89 NW6       29.81R                  
STORM LAKE *   CLOUDY    37  37 100 NW10      29.79R WCI  30          
$$
 
IAZ055>058-069>071-079>083-090>094-181200-
   SOUTHWEST IOWA
  
CITY           SKY/WX    TMP DP  RH WIND       PRES   REMARKS
ATLANTIC *     CLOUDY    43  43 100 N13G18    29.80S                  
AUDUBON *      CLOUDY    41  37  87 CALM      29.81R                  
CLARINDA *     CLOUDY    45  41  87 N12       29.82S                  
COUNCIL BLFS * CLOUDY    43  43 100 N10       29.82R                  
CRESTON *      CLOUDY    43  39  87 N15G22    29.77S                  
HARLAN  *      CLOUDY    41  39  93 NW13      29.81S                  
LAMONI         CLOUDY    45  39  79 N15       29.72F                  
RED OAK *      MOCLDY    45  41  87 N12       29.82R                  
SHENANDOAH *   CLOUDY    46  43  87 N6        29.81R                  
$$
 
IAZ047>049-059>061-072>074-084-181200-
   CENTRAL IOWA
  
CITY           SKY/WX    TMP DP  RH WIND       PRES   REMARKS
AMES           CLOUDY    44  38  79 N14       29.76S                  
ANKENY *       CLOUDY    45  39  81 MISG      29.77R                  
BOONE *        CLOUDY    43  41  93 N15G23    29.75R                  
CHARITON *     CLOUDY    45  41  87 NW18G29   29.70F                  
DES MOINES     CLOUDY    45  37  73 N13G23    29.75R                  
GRINNELL*      CLOUDY    42  38  86 NW20G26   29.72R                  
KNOXVILLE *    CLOUDY    45  45 100 NW22G31   29.71F                  
MARSHALLTOWN   CLOUDY    43  38  82 NW13      29.73R                  
NEWTON *       CLOUDY    43  41  93 N18G28    29.73R                  
PELLA *        CLOUDY    44  37  77 NW23      29.73S                  
PERRY *        CLOUDY    44  40  85 N10       29.77S                  
$$
 
IAZ004>006-015-016-023>025-035-036-181200-
   NORTH CENTRAL IOWA
  
CITY           SKY/WX    TMP DP  RH WIND       PRES   REMARKS
ALGONA *       CLOUDY    41  41 100 NW14      29.77R                  
CLARION *      CLOUDY    43  39  87 N14G20    29.76R                  
ESTHERVILLE    CLOUDY    39  37  92 NW12      29.79R WCI  32          
FORT DODGE *   CLOUDY    42  38  85 N8          N/A                   
MASON CITY     CLOUDY    41  40  96 NW15      29.74R                  
FOREST CITY *  CLOUDY    43  39  87 N15G22    29.74R                  
IOWA FALLS *   CLOUDY    43  39  86 NW20G26   29.74S                  
$$

IAZ007>011-017>019-026>030-037>042-050>054-066-181200-
   NORTHEAST IOWA
  
CITY           SKY/WX    TMP DP  RH WIND       PRES   REMARKS
CEDAR RAPIDS   CLOUDY    44  41  89 NW16      29.65S                  
CHARLES CITY * CLOUDY    41  39  93 NW14G20   29.70R                  
CLINTON *      CLOUDY    47  44  90 NW15      29.61S                  
DECORAH *      CLOUDY    41  39  93 NW16G23   29.65R                  
DUBUQUE        CLOUDY    46  40  79 NW13      29.62R                  
MONTICELLO *   CLOUDY    45  45 100 NW14G21   29.64R                  
OELWEIN *      CLOUDY    43  41  93 NW15G23   29.68R                  
WATERLOO       CLOUDY    44  38  79 NW18G30   29.71R                  
$$
 
IAZ064-065-067-068-078-181200-
   EAST CENTRAL IOWA
  
CITY           SKY/WX    TMP DP  RH WIND       PRES   REMARKS
DAVENPORT      CLOUDY    48  42  80 NW14      29.63F                  
IOWA CITY      CLOUDY    47  40  76 NW13G25   29.67R                  
MT. PLEASANT * CLOUDY    46  45  93 NW15      29.63F                  
MUSCATINE *    CLOUDY    48  43  81 NW14      29.64S                  
QUAD CITIES    CLOUDY    50  43  77 NW14      29.61R                  
$$
 
IAZ062-063-075>077-085>089-095>099-181200-
   SOUTHEAST IOWA
  
CITY           SKY/WX    TMP DP  RH WIND       PRES   REMARKS
BURLINGTON     CLOUDY    47  42  83 NW12      29.61F                  
FAIRFIELD *    CLOUDY    46  41  81 NW17G25   29.65S                  
FORT MADISON * CLOUDY    46  46 100 NW12      29.63F                  
KEOKUK *       CLOUDY    46  45  93 NW7       29.62F                  
OSKALOOSA *    CLOUDY    44  38  77 NW16G29   29.70R                  
CENTERVILLE *  MOCLDY    45  41  87 NW17G24   29.70F                  
OTTUMWA        CLOUDY    45  39  79 NW23G32   29.68S                  
WASHINGTON *   CLOUDY    46  45  93 NW18G26   29.65S                  
$$

ABBREVIATIONS USED IN REMARKS
   TC - TEMPERATURES IN CELSIUS
  WCI - WIND CHILL INDEX
   HX - HEAT INDEX
  VSB - VISIBILITY  
$$